Flag for U.S.A. Weather past 2 weeks in Harrisburg, Pennsylvania, U.S.A.

Now
63 °F

Sunny.


Feels Like: 63 °F
Forecast: 43 / 63 °F
Wind: 8 mph from Northwest

Location: Capital City Airport


UV Index: 5 (Moderate)

Visibility: 10 mi


Pressure: 30.28 "Hg

Humidity: 19%

Dew point: 20 °F

Location of HarrisburgLocation

Historic Weather in Harrisburg

°F

Harrisburg temperature yesterday

Maximum temperature yesterday: 53 °F (at 4:56 PM)
Minimum temperature yesterday: 33 °F (at 5:56 AM)
Average temperature yesterday: 44 °F

Past Weeks' High & Low Weather Summary

 TemperatureHumidityPressure
High84 °F (Apr 13, 3:56 PM)100% (Apr 5, 3:56 AM)30.68 "Hg (Apr 5, 3:56 AM)
Low29 °F (Apr 6, 5:56 AM)18% (Apr 19, 12:56 PM)29.48 "Hg (Apr 8, 6:56 AM)
Average51 °F58%30.06 "Hg
* Reported Apr 4 6:56 PM — Apr 19 6:56 PM, Harrisburg, Weather by CustomWeather, © 2014

Note: Actual official high and low records may vary slightly from our data, if they occured in-between our weather recording intervals... More about our weather records

Advertising

Historic Weather Conditions — Data for Previous 24 hours

 ConditionsComfort  
Time TempWeatherWind HumidityBarometerVisibility
6:56 PM
Apr 19
63 °FSunny.8 mph19%30.28 "Hg10 mi
5:56 PM64 °FSunny.7 mph22%30.28 "Hg10 mi
4:56 PM63 °FSunny.9 mph25%30.27 "Hg10 mi
3:56 PM63 °FSunny.13 mph24%30.27 "Hg10 mi
2:56 PM62 °FSunny.13 mph22%30.28 "Hg10 mi
1:56 PM62 °FSunny.17 mph20%30.29 "Hg10 mi
12:56 PM62 °FSunny.13 mph18%30.29 "Hg10 mi
11:56 AM61 °FSunny.10 mph29%30.32 "Hg10 mi
10:56 AM58 °FSunny.9 mph33%30.33 "Hg10 mi
9:56 AM55 °FSunny.8 mph45%30.33 "Hg10 mi
8:56 AM51 °FSunny.5 mph61%30.32 "Hg10 mi
7:56 AM44 °FSunny.No wind76%30.31 "Hg10 mi
6:56 AM39 °FClear.No wind86%30.29 "Hg10 mi
5:56 AM37 °FClear.3 mph86%30.27 "Hg10 mi
4:56 AM39 °FClear.3 mph82%30.27 "Hg10 mi
3:56 AM40 °FClear.No wind80%30.26 "Hg10 mi
2:56 AM42 °FClear.No wind73%30.26 "Hg10 mi
1:56 AM43 °FClear.No wind74%30.27 "Hg10 mi
12:56 AM45 °FClear.No wind65%30.26 "Hg10 mi
11:56 PM
Apr 18
48 °FClear.3 mph59%30.27 "Hg10 mi
10:56 PM48 °FClear.3 mph59%30.28 "Hg10 mi
9:56 PM49 °FClear.3 mph57%30.29 "Hg10 mi
8:56 PM49 °FClear.No wind59%30.29 "Hg10 mi
7:56 PM51 °FSunny.5 mph54%30.29 "Hg10 mi
Weather by CustomWeather, © 2014

See weather overview